Location: Unnamed
(48.6007°N, 2.4808°E)
Time: 00:49:45
(UTC+01:00)

FENGYUN 1C DEB - Pass Details

Date: 03 December 2023
Orbit: 754 x 826 km, 99.0° (Epoch: 26 February)

Event Time Altitude Azimuth Distance (km) Brightness Sun altitude
Rises 18:38:34 0° 9° (N) 3,307 ? -16.2°
Reaches altitude 10° 18:40:59 10° 3° (N) 2,386 ? -16.6°
Maximum altitude 18:45:55 42° 294° (WNW) 1,156 ? -17.4°
Drops below altitude 10° 18:50:54 10° 226° (SW) 2,419 ? -18.2°
Sets 18:53:22 0° 219° (SW) 3,357 ? -18.6°
